Location: La Oliva
(42.2466°N, 2.9955°E)
Time: 10:53:53
(UTC+00:00)

IRIDIUM 114 - Pass Details

Date: 22 April 2021
Orbit: 776 x 779 km, 86.4° (Epoch: 10 May)

Event Time Altitude Azimuth Distance (km) Brightness Sun altitude
Exits shadow 20:12:32 - 183° (S) 2,670 6.8 -16.5°
Reaches altitude 10° 20:13:25 10° 184° (S) 2,323 6.5 -16.7°
Maximum altitude 20:18:37 84° 273° (W) 788 4.3 -17.5°
Drops below altitude 10° 20:23:52 10° 2° (N) 2,338 7.3 -18.2°
Sets 20:26:14 0° 3° (N) 3,270 8.1 -18.6°
